Weather History for KLRU - September, 2014

Change the Weather History Date:

Tuesday, September 2, 2014

  Actual Average Record
Temperature  
Mean Temperature 80 °F -  
Max Temperature 98 °F 88 °F 98 °F (2014)
Min Temperature 62 °F 65 °F 62 °F (2004)
Cooling Degree Days 15    
Growing Degree Days 30 (Base 50)    
Moisture  
Dew Point 31 °F    
Average Humidity 17    
Maximum Humidity 30    
Minimum Humidity 8    
Precipitation  
Precipitation 0.00 in - - ()
Sea Level Pressure  
Sea Level Pressure 30.02 in    
Wind  
Wind Speed 7 mph (West)    
Max Wind Speed 12 mph    
Max Gust Speed 18 mph    
Visibility 10 miles    
Events      
Averages and records for this station are not official NWS values.
T = Trace of Precipitation, MM = Missing Value Source: NWS Daily Summary

Daily Weather History Graph

Daily Weather History Graph

Search for Another Location

Airport or City:

Trip Planner

Search our weather history database for the weather conditions in past years. The results will help you decide how hot, cold, wet, or windy it might be!

Date:

Astronomy

Sep. 02, 2014 Rise Set
Actual Time 6:43 AM MDT 7:30 PM MDT
Civil Twilight 6:18 AM MDT 7:55 PM MDT
Nautical Twilight 5:49 AM MDT 8:24 PM MDT
Astronomical Twilight 5:18 AM MDT 8:54 PM MDT
Moon 2:06 PM MDT (9/2) No Moon Set
Length of Visible Light 13h 37m
Length of Day
12h 47m
First Quarter, 53% of the Moon is Illuminated
Sep 2
First Quarter
Sep 8
Full
Sep 15
Last Quarter
Sep 24
New
Oct 1
First Quarter

Hourly Weather History & Observations

Time (MDT) Temp. Dew Point Humidity Pressure Visibility Wind Dir Wind Speed Gust Speed Precip Events Conditions
12:15 AM 75.7 °F 32.0 °F 20% 30.02 in 10.0 mi WNW 8.1 mph - N/A   Clear
12:35 AM 77.0 °F 32.4 °F 20% 30.02 in 10.0 mi WNW 8.1 mph - N/A   Clear
12:55 AM 77.7 °F 32.9 °F 20% 30.02 in 10.0 mi WNW 8.1 mph - N/A   Clear
1:15 AM 75.2 °F 32.9 °F 21% 30.02 in 10.0 mi West 9.2 mph - N/A   Clear
1:35 AM 75.0 °F 32.9 °F 21% 30.02 in 10.0 mi WNW 8.1 mph - N/A   Clear
1:55 AM 76.8 °F 32.0 °F 19% 30.02 in 10.0 mi WNW 8.1 mph - N/A   Clear
2:15 AM 74.5 °F 32.0 °F 21% 30.02 in 10.0 mi WNW 6.9 mph - N/A   Clear
2:35 AM 72.7 °F 31.6 °F 22% 30.02 in 10.0 mi NW 9.2 mph - N/A   Clear
2:55 AM 70.9 °F 31.6 °F 23% 30.02 in 10.0 mi WNW 6.9 mph - N/A   Clear
3:15 AM 69.3 °F 31.6 °F 25% 30.02 in 10.0 mi WNW 6.9 mph - N/A   Clear
3:35 AM 68.9 °F 31.1 °F 25% 30.01 in 10.0 mi WNW 8.1 mph - N/A   Clear
3:55 AM 70.2 °F 30.7 °F 23% 30.01 in 10.0 mi WNW 4.6 mph - N/A   Clear
4:15 AM 67.3 °F 31.3 °F 26% 30.01 in 10.0 mi West 5.8 mph - N/A   Clear
4:35 AM 66.4 °F 31.3 °F 27% 30.02 in 10.0 mi WSW 4.6 mph - N/A   Clear
4:55 AM 66.6 °F 31.3 °F 27% 30.02 in 10.0 mi West 6.9 mph - N/A   Clear
5:15 AM 68.7 °F 30.4 °F 24% 30.02 in 10.0 mi WSW 8.1 mph - N/A   Clear
5:35 AM 65.1 °F 30.2 °F 27% 30.03 in 10.0 mi WNW 4.6 mph - N/A   Clear
5:55 AM 66.6 °F 30.0 °F 26% 30.03 in 10.0 mi WNW 6.9 mph - N/A   Clear
6:15 AM 65.5 °F 31.1 °F 28% 30.04 in 10.0 mi West 6.9 mph - N/A   Clear
6:35 AM 63.7 °F 30.6 °F 29% 30.04 in 10.0 mi West 5.8 mph - N/A   Clear
6:55 AM 62.2 °F 30.2 °F 30% 30.05 in 10.0 mi WNW 6.9 mph - N/A   Clear
7:15 AM 63.5 °F 31.1 °F 30% 30.07 in 10.0 mi NW 6.9 mph - N/A   Clear
7:35 AM 66.6 °F 33.1 °F 29% 30.07 in 10.0 mi NNW 4.6 mph - N/A   Clear
7:55 AM 70.7 °F 34.9 °F 27% 30.07 in 10.0 mi North 3.5 mph - N/A   Clear
8:15 AM 73.2 °F 34.5 °F 24% 30.08 in 10.0 mi Calm Calm - N/A   Clear
8:35 AM 73.2 °F 36.0 °F 26% 30.08 in 10.0 mi Calm Calm - N/A   Clear
8:55 AM 75.4 °F 36.0 °F 24% 30.08 in 10.0 mi NE 3.5 mph - N/A   Clear
9:15 AM 76.8 °F 34.5 °F 22% 30.08 in 10.0 mi NE 3.5 mph - N/A   Clear
9:35 AM 78.8 °F 34.7 °F 20% 30.08 in 10.0 mi NE 3.5 mph - N/A   Clear
9:55 AM 80.8 °F 33.4 °F 18% 30.08 in 10.0 mi East 4.6 mph - N/A   Clear
10:15 AM 82.2 °F 32.9 °F 17% 30.08 in 10.0 mi Calm Calm - N/A   Clear
10:35 AM 84.6 °F 34.0 °F 16% 30.08 in 10.0 mi ENE 4.6 mph - N/A   Clear
10:55 AM 86.2 °F 33.4 °F 15% 30.08 in 10.0 mi East 4.6 mph - N/A   Clear
11:15 AM 88.5 °F 34.0 °F 14% 30.08 in 10.0 mi East 4.6 mph - N/A   Clear
11:35 AM 89.6 °F 33.6 °F 14% 30.08 in 10.0 mi Calm Calm - N/A   Clear
11:55 AM 89.8 °F 32.5 °F 13% 30.07 in 10.0 mi WNW 5.8 mph - N/A   Clear
12:15 PM 91.2 °F 31.8 °F 12% 30.06 in 10.0 mi NW 4.6 mph - N/A   Clear
12:35 PM 91.4 °F 31.8 °F 12% 30.06 in 10.0 mi WNW 5.8 mph - N/A   Clear
12:55 PM 93.0 °F 32.0 °F 12% 30.05 in 10.0 mi SW 3.5 mph - N/A   Clear
1:15 PM 94.1 °F 31.6 °F 11% 30.04 in 10.0 mi NNE 4.6 mph - N/A   Clear
1:35 PM 95.0 °F 31.3 °F 11% 30.04 in 10.0 mi Calm Calm - N/A   Clear
1:55 PM 95.4 °F 31.1 °F 10% 30.03 in 10.0 mi WSW 4.6 mph - N/A   Clear
2:15 PM 96.6 °F 32.0 °F 10% 30.02 in 10.0 mi Calm Calm - N/A   Clear
2:35 PM 96.6 °F 31.8 °F 10% 30.02 in 10.0 mi South 9.2 mph - N/A   Clear
2:55 PM 98.2 °F 32.0 °F 10% 30.01 in 10.0 mi East 8.1 mph 16.1 mph N/A   Clear
3:15 PM 98.1 °F 31.5 °F 10% 30.00 in 10.0 mi ESE 11.5 mph 18.4 mph N/A   Clear
3:35 PM 96.8 °F 30.7 °F 10% 29.99 in 10.0 mi SE 8.1 mph - N/A   Clear
3:55 PM 98.1 °F 30.2 °F 9% 29.99 in 10.0 mi SSE 8.1 mph - N/A   Clear
4:15 PM 97.7 °F 30.7 °F 9% 29.98 in 10.0 mi ESE 9.2 mph - N/A   Clear
4:55 PM 98.2 °F 29.5 °F 9% 29.97 in 10.0 mi SSE 8.1 mph - N/A   Clear
5:15 PM 97.3 °F 27.5 °F 8% 29.96 in 10.0 mi ENE 6.9 mph - N/A   Clear
5:35 PM 96.8 °F 27.5 °F 9% 29.95 in 10.0 mi SE 6.9 mph - N/A   Clear
5:55 PM 96.6 °F 26.4 °F 8% 29.95 in 10.0 mi SE 6.9 mph - N/A   Clear
6:15 PM 96.1 °F 27.7 °F 9% 29.95 in 10.0 mi East 6.9 mph - N/A   Clear
6:35 PM 95.4 °F 28.9 °F 9% 29.95 in 10.0 mi ESE 6.9 mph - N/A   Clear
6:55 PM 94.1 °F 28.6 °F 10% 29.95 in 10.0 mi ESE 6.9 mph - N/A   Clear
7:15 PM 92.5 °F 27.5 °F 10% 29.95 in 10.0 mi SE 4.6 mph - N/A   Clear
7:35 PM 89.2 °F 27.5 °F 11% 29.95 in 10.0 mi SE 4.6 mph - N/A   Clear
7:55 PM 87.3 °F 27.7 °F 12% 29.96 in 10.0 mi SE 5.8 mph - N/A   Clear
8:15 PM 85.8 °F 26.6 °F 12% 29.96 in 10.0 mi SSE 6.9 mph - N/A   Clear
8:35 PM 86.2 °F 26.1 °F 11% 29.97 in 10.0 mi SSE 6.9 mph - N/A   Clear
8:55 PM 85.6 °F 26.8 °F 12% 29.98 in 10.0 mi SSE 6.9 mph - N/A   Clear
9:15 PM 85.1 °F 27.3 °F 12% 29.98 in 10.0 mi SSE 8.1 mph - N/A   Clear
9:35 PM 85.3 °F 27.7 °F 12% 29.99 in 10.0 mi West 9.2 mph - N/A   Clear
9:55 PM 84.4 °F 27.5 °F 13% 29.99 in 10.0 mi West 8.1 mph - N/A   Clear
10:15 PM 83.7 °F 29.1 °F 14% 29.99 in 10.0 mi West 10.4 mph - N/A   Clear
10:35 PM 81.3 °F 29.3 °F 15% 29.99 in 10.0 mi West 9.2 mph - N/A   Clear
10:55 PM 80.6 °F 29.3 °F 15% 29.99 in 10.0 mi West 10.4 mph - N/A   Clear
11:15 PM 77.5 °F 30.2 °F 18% 29.99 in 10.0 mi West 9.2 mph - N/A   Clear
11:35 PM 76.6 °F 30.2 °F 18% 29.99 in 10.0 mi WNW 6.9 mph - N/A   Clear
11:55 PM 76.5 °F 30.2 °F 18% 29.99 in 10.0 mi WNW 5.8 mph - N/A   Clear